This is the latest recevied weather packets stored in our database for station/object NUUKSIO. If no packets are shown the sender has not sent any weather packets the latest 10 day(s).
| Time | Temp. | Humidity | Pressure | Rain* | Wind** | Luminosity | Snow |
|---|---|---|---|---|---|---|---|
| 1778195248 | 3.89° C | 57% | 1020.8 hPa | 0 mm | - | - | - |
| 1778194047 | 4.44° C | 55% | 1020.5 hPa | 0 mm | - | - | - |
| 1778192848 | 4.44° C | 53% | 1020.3 hPa | 0 mm | - | - | - |
| 1778191648 | 5° C | 51% | 1020.1 hPa | 0 mm | - | - | - |
| 1778190448 | 5° C | 50% | 1019.9 hPa | 0 mm | - | - | - |
| 1778189247 | 5.56° C | 49% | 1019.6 hPa | 0 mm | - | - | - |
| 1778188047 | 5.56° C | 49% | 1019.3 hPa | 0 mm | - | - | - |
| 1778186847 | 5° C | 48% | 1019.1 hPa | 0 mm | - | - | - |
| 1778185647 | 5.56° C | 44% | 1018.8 hPa | 0 mm | - | - | - |
| 1778184448 | 5.56° C | 45% | 1018.6 hPa | 0 mm | - | - | - |
| 1778183247 | 5.56° C | 40% | 1018.2 hPa | 0 mm | - | - | - |
| 1778182047 | 5.56° C | 40% | 1017.8 hPa | 0 mm | - | - | - |
| 1778180847 | 5.56° C | 40% | 1017.7 hPa | 0 mm | - | - | - |
| 1778179647 | 6.67° C | 38% | 1017.3 hPa | 0 mm | - | - | - |
| 1778178446 | 7.22° C | 38% | 1017.2 hPa | 0 mm | - | - | - |
| 1778177246 | 7.78° C | 41% | 1016.9 hPa | 0 mm | - | - | - |
| 1778176046 | 8.33° C | 38% | 1016.8 hPa | 0 mm | - | - | - |
| 1778174846 | 8.89° C | 36% | 1016.7 hPa | 0 mm | - | - | - |
| 1778173646 | 9.44° C | 35% | 1016.5 hPa | 0 mm | - | - | - |
| 1778172447 | 10° C | 34% | 1016.4 hPa | 0 mm | - | - | - |
| 1778171247 | 10.56° C | 34% | 1016.2 hPa | 0 mm | - | - | - |
| 1778170047 | 10.56° C | 31% | 1016.1 hPa | 0 mm | - | - | - |
| 1778168846 | 11.11° C | 28% | 1015.9 hPa | 0 mm | - | - | - |
| 1778167645 | 11.67° C | 29% | 1015.8 hPa | 0 mm | - | - | - |
| 1778166447 | 12.22° C | 26% | 1015.7 hPa | 0 mm | - | - | - |
* Rain latest hour (hover to see other rain measurements)
** Current wind speed in m/s (hover to see current wind gust speed)